Location: Clinton NY
(43.0598°N, 75.3602°W)
Time: 06:58:18
(UTC-04:00)

Amateur Radio Satellites - All Passes

Search period start: 19 April 2015 06:28
Search period end: 20 April 2015 06:28
Location: Clinton NY, 43.0598°N, 75.3602°W

Satellite Date Start Highest point End Downlink Frequencies (MHz)
Time Altitude Azimuth
CUBESAT XI-V 19 Apr 06:29:39 06:34:17 72° 75° (ENE) 06:38:55 437.345
CUTE-I 19 Apr 06:40:36 06:45:10 29° 94° (E) 06:49:48 437.470
GONETS M04 19 Apr 06:43:53 06:50:40 24° 279° (W) 06:57:07
JAS-2 19 Apr 06:47:06 06:52:29 24° 301° (WNW) 06:57:15 435.910
Cubesat XI-IV 19 Apr 06:47:46 06:52:35 34° 96° (E) 06:57:26 437.490
STRAND 1 19 Apr 06:51:02 06:56:05 62° 73° (ENE) 07:01:09 437.568
Cosmos 2499 19 Apr 06:51:50 07:00:00 81° 81° (E) 07:07:29 435.465 / 435.565
PRISM 19 Apr 07:01:31 07:05:42 73° 257° (WSW) 07:09:54 437.425
AUBIESAT-1 19 Apr 07:07:15 07:10:57 22° 264° (W) 07:14:38 437.475
DANDE 19 Apr 07:34:18 07:38:37 17° 273° (W) 07:42:56 436.750
AIST 2 19 Apr 07:43:32 07:46:16 16° 322° (NW) 07:48:54 435.215
CUSAT 1 19 Apr 07:45:38 07:47:42 11° 277° (W) 07:49:14 437.405
CUBESAT XI-V 19 Apr 08:10:24 08:12:19 12° 273° (W) 08:13:59 437.345
GOMX 1 19 Apr 08:12:08 08:13:07 11° 86° (E) 08:14:28 467.674
CUTE-I 19 Apr 08:20:27 08:25:20 37° 292° (WNW) 08:30:10 437.470
AO-7 19 Apr 08:20:45 08:23:55 12° 318° (NW) 08:26:40 29.400- 29.500
HO-68 19 Apr 08:24:40 08:28:53 17° 87° (E) 08:33:28 435.675
Cubesat XI-IV 19 Apr 08:27:57 08:32:40 32° 293° (WNW) 08:37:18 437.490
STRAND 1 19 Apr 08:32:29 08:35:48 17° 271° (W) 08:38:53 437.568
Cosmos 2499 19 Apr 08:46:44 08:52:08 19° 281° (W) 08:56:56 435.465 / 435.565
DOVE 4 19 Apr 09:21:25 09:25:57 36° 96° (E) 09:30:43 437.250
BRITE-PL 19 Apr 09:21:56 09:26:45 78° 102° (ESE) 09:31:59 437.365/2234.400
CINEMA 3 19 Apr 09:23:26 09:26:59 20° 91° (E) 09:30:43 145.822/145.860
PCSat 19 Apr 09:24:47 09:29:04 25° 109° (ESE) 09:33:30 145.827
COMPASS 1 19 Apr 09:25:06 09:28:40 26° 94° (E) 09:32:14 437.405
O/OREOS (USA 219) 19 Apr 09:30:44 09:35:09 49° 63° (ENE) 09:39:30 437.305
CANX-2 19 Apr 09:34:34 09:38:48 55° 100° (E) 09:43:01 2200.000
SEEDS 19 Apr 09:38:39 09:42:46 45° 98° (E) 09:46:52 437.485
CUTE 1.7 + AOD 2 19 Apr 09:44:49 09:49:07 65° 101° (E) 09:53:21 437.475
GOMX 1 19 Apr 09:47:00 09:51:55 90° 63° (ENE) 09:57:10 467.674
FUNcube-1 19 Apr 09:48:18 09:49:36 11° 86° (E) 09:51:12 145.935
POPSAT HIP 1 19 Apr 09:56:59 09:58:44 13° 63° (ENE) 10:00:41 437.405
NANOSAT C BR1 19 Apr 09:57:11 09:58:55 13° 63° (ENE) 10:00:52 145.865
TIGRISAT 19 Apr 10:01:23 10:05:09 28° 68° (ENE) 10:09:05 435.000
UNISAT 6 19 Apr 10:02:12 10:06:03 30° 68° (ENE) 10:10:03 437.425
ZACube-1 19 Apr 10:09:01 10:12:19 20° 91° (E) 10:15:44 437.345
HO-68 19 Apr 10:10:25 10:17:40 89° 289° (WNW) 10:24:52 435.675
CUBEBUG 2 19 Apr 10:11:23 10:15:37 32° 95° (E) 10:19:54 437.445
AAUSAT CUBESAT 2 19 Apr 10:13:28 10:17:42 80° 102° (ESE) 10:21:53 437.432
Cosmos 2491 19 Apr 10:20:37 10:29:03 48° 73° (ENE) 10:37:32 435.465 / 435.565
POLYITAN 1 19 Apr 10:21:32 10:24:50 23° 67° (ENE) 10:28:13 437.675
Oscar 11 19 Apr 10:25:04 10:29:19 49° 99° (E) 10:33:32 145.826/435.025
DUCHIFAT 1 19 Apr 10:31:25 10:34:57 28° 69° (ENE) 10:38:34 145.980
DELFI C3 19 Apr 10:36:06 10:40:03 48° 99° (E) 10:43:58 145.870
ANTELSAT 19 Apr 10:43:14 10:47:41 78° 76° (ENE) 10:52:17 437.575/2403.000
QB50P1 19 Apr 10:43:44 10:47:36 38° 71° (ENE) 10:51:33 145.935-145.965
DX 1 19 Apr 10:46:29 10:50:13 28° 96° (E) 10:54:00 434.975-435.025
UWE-3 19 Apr 10:52:45 10:57:26 69° 101° (E) 11:02:07 435.000/436.395/437.385
BUGSAT 1 19 Apr 10:58:43 11:02:26 38° 71° (ENE) 11:06:12 437.445
DOVE 4 19 Apr 10:59:24 11:03:37 29° 291° (WNW) 11:07:56 437.250
CINEMA 3 19 Apr 10:59:45 11:04:27 49° 287° (WNW) 11:09:14 145.822/145.860
COMPASS 1 19 Apr 11:00:41 11:04:20 28° 291° (WNW) 11:07:53 437.405
BRITE-PL 19 Apr 11:02:21 11:04:52 14° 296° (WNW) 11:07:15 437.365/2234.400
HUMSAT D 19 Apr 11:02:41 11:06:39 33° 96° (E) 11:10:36 437.325/437.525
QB50P2 19 Apr 11:06:47 11:10:58 71° 76° (ENE) 11:15:12 145.880/145.840
PCSat 19 Apr 11:06:58 11:12:14 50° 306° (NW) 11:17:31 145.827
O/OREOS (USA 219) 19 Apr 11:11:17 11:14:11 17° 259° (W) 11:16:55 437.305
CANX-2 19 Apr 11:11:48 11:14:20 15° 296° (WNW) 11:16:42 2200.000
SEEDS 19 Apr 11:15:23 11:18:15 17° 295° (WNW) 11:20:59 437.485
FUNcube-1 19 Apr 11:21:57 11:26:34 76° 283° (WNW) 11:31:09 145.935
CUTE 1.7 + AOD 2 19 Apr 11:22:28 11:24:33 13° 297° (WNW) 11:26:26 437.475
VELOX 1 19 Apr 11:24:37 11:28:37 33° 97° (E) 11:32:38 145.980
GOMX 1 19 Apr 11:27:26 11:29:31 12° 298° (WNW) 11:31:24 467.674
YUBILEINY 19 Apr 11:29:56 11:38:21 53° 90° (E) 11:46:50 435.215
POPSAT HIP 1 19 Apr 11:29:59 11:34:09 65° 259° (W) 11:38:21 437.405
NANOSAT C BR1 19 Apr 11:30:09 11:34:19 65° 259° (W) 11:38:30 145.865
TIGRISAT 19 Apr 11:37:58 11:41:53 29° 266° (W) 11:45:50 435.000
UNISAT 6 19 Apr 11:38:58 11:42:50 28° 266° (W) 11:46:44 437.425
AISAT 19 Apr 11:39:18 11:43:37 49° 100° (E) 11:47:57 437.250
UKube-1 19 Apr 11:39:31 11:43:52 83° 285° (WNW) 11:48:11 .
AIST 1 19 Apr 11:41:34 11:42:53 11° 65° (ENE) 11:44:25
ZACube-1 19 Apr 11:44:32 11:48:55 44° 288° (WNW) 11:53:16 437.345
CUBEBUG 2 19 Apr 11:48:08 11:52:14 29° 291° (WNW) 11:56:19 437.445
CUBEBUG 1 19 Apr 11:51:22 11:55:13 30° 96° (E) 11:59:06 437.445
AAUSAT CUBESAT 2 19 Apr 11:51:50 11:52:45 10° 298° (WNW) 11:53:27 437.432
50 SAT 19 Apr 11:53:01 11:57:06 77° 102° (ESE) 12:01:09 437.505
ESTCUBE 1 19 Apr 11:53:07 11:57:16 36° 97° (E) 12:01:26 437.505/2401.250
POLYITAN 1 19 Apr 11:56:49 12:00:37 32° 264° (W) 12:04:26 437.675
HO-68 19 Apr 11:59:37 12:04:33 20° 305° (NW) 12:09:13 435.675
Oscar 11 19 Apr 12:02:16 12:05:09 17° 295° (WNW) 12:07:54 145.826/435.025
SPROUT 19 Apr 12:05:56 12:07:28 12° 88° (E) 12:09:13 437.525
DUCHIFAT 1 19 Apr 12:07:14 12:10:46 26° 265° (W) 12:14:18 145.980
DELFI C3 19 Apr 12:12:25 12:14:51 15° 295° (WNW) 12:17:07 145.870
Cosmos 2491 19 Apr 12:17:47 12:25:50 40° 273° (W) 12:33:43 435.465 / 435.565
QB50P1 19 Apr 12:20:38 12:23:41 19° 268° (W) 12:26:38 145.935-145.965
DX 1 19 Apr 12:22:41 12:26:26 28° 292° (WNW) 12:30:07 434.975-435.025
ANTELSAT 19 Apr 12:24:18 12:25:11 10° 274° (W) 12:25:48 437.575/2403.000
Oscar 19 19 Apr 12:29:18 12:33:03 22° 64° (ENE) 12:36:58 437.125/150
BEESAT 2 19 Apr 12:29:53 12:32:47 18° 40° (NE) 12:35:44 435.950
UWE-3 19 Apr 12:30:51 12:33:29 15° 297° (WNW) 12:35:56 435.000/436.395/437.385
BUGSAT 1 19 Apr 12:35:20 12:38:08 17° 268° (W) 12:40:47 437.445
BEESAT 3 19 Apr 12:37:31 12:40:51 23° 44° (NE) 12:44:13 437.485
HUMSAT D 19 Apr 12:38:45 12:42:15 24° 292° (WNW) 12:45:40 437.325/437.525
QB50P2 19 Apr 12:46:51 12:47:28 10° 273° (W) 12:47:49 145.880/145.840
AIST 2 19 Apr 12:47:02 12:48:40 12° 33° (NNE) 12:50:26 435.215
ITAMSAT 1 19 Apr 12:50:45 12:52:07 11° 58° (ENE) 12:53:46 435.822/435.867
PCSat 19 Apr 12:55:10 12:57:05 12° 329° (NNW) 12:58:49 145.827
Cosmos 2504 19 Apr 12:56:31 13:01:42 18° 78° (ENE) 13:07:24 435.465 / 435.565
VELOX 1 19 Apr 13:01:26 13:05:03 25° 293° (WNW) 13:08:37 145.980
AISAT 19 Apr 13:16:52 13:19:53 18° 295° (WNW) 13:22:47 437.250
AIST 1 19 Apr 13:16:53 13:21:07 65° 265° (W) 13:25:20
SO-50 19 Apr 13:20:31 13:24:48 39° 117° (ESE) 13:29:17 436.795
YUBILEINY 19 Apr 13:27:28 13:35:33 37° 291° (WNW) 13:43:29 435.215
CUBEBUG 1 19 Apr 13:27:53 13:31:29 25° 292° (WNW) 13:35:02 437.445
ESTCUBE 1 19 Apr 13:30:24 13:33:59 23° 293° (WNW) 13:37:26 437.505/2401.250
50 SAT 19 Apr 13:30:42 13:31:24 10° 298° (WNW) 13:31:53 437.505
ITUPSAT 1 19 Apr 13:32:19 13:34:30 13° 88° (E) 13:36:56 437.325
TISAT 1 19 Apr 13:36:31 13:40:47 87° 286° (WNW) 13:45:02 437.305
SPROUT 19 Apr 13:39:47 13:44:04 64° 286° (WNW) 13:48:21 437.525
AO-7 19 Apr 13:44:57 13:48:53 15° 45° (NE) 13:53:12 29.400- 29.500
RS-15 19 Apr 13:51:32 13:56:11 14° 98° (E) 14:01:46 29.354- 29.394
ISS 19 Apr 14:01:40 14:03:46 16° 134° (SE) 14:05:56 145.825
BEESAT 19 Apr 14:06:18 14:10:29 30° 95° (E) 14:14:40 436.000
Oscar 19 19 Apr 14:07:05 14:12:05 52° 260° (W) 14:17:08 437.125/150
BEESAT 2 19 Apr 14:07:12 14:11:18 59° 240° (WSW) 14:15:17 435.950
SWISSCUBE 19 Apr 14:07:30 14:11:48 33° 96° (E) 14:16:06 437.505
Gurwin Techsat 1B 19 Apr 14:14:00 14:19:07 51° 71° (ENE) 14:24:17 435.225
BEESAT 3 19 Apr 14:15:11 14:19:03 40° 243° (WSW) 14:22:49 437.485
AIST 2 19 Apr 14:23:52 14:28:08 69° 54° (NE) 14:32:18 435.215
ITAMSAT 1 19 Apr 14:25:41 14:30:52 77° 74° (ENE) 14:36:04 435.822/435.867
Cosmos 2504 19 Apr 14:45:09 14:53:59 84° 96° (E) 15:02:54 435.465 / 435.565
SO-50 19 Apr 15:01:15 15:05:27 30° 316° (NW) 15:09:44 436.795
ITUPSAT 1 19 Apr 15:08:13 15:12:58 68° 287° (WNW) 15:17:42 437.325
JAS-2 19 Apr 15:12:24 15:19:20 37° 65° (ENE) 15:26:20 435.910
STARS 19 Apr 15:31:23 15:35:09 27° 95° (E) 15:38:58 437.465
AO-7 19 Apr 15:32:06 15:40:08 59° 66° (ENE) 15:48:15 29.400- 29.500
ISS 19 Apr 15:36:36 15:39:51 65° 329° (NNW) 15:43:06 145.825
HORYU 2 19 Apr 15:37:38 15:42:05 70° 74° (ENE) 15:46:35 437.375
BEESAT 19 Apr 15:44:07 15:48:18 30° 292° (WNW) 15:52:25 436.000
SWISSCUBE 19 Apr 15:45:31 15:49:35 28° 293° (WNW) 15:53:33 437.505
Gurwin Techsat 1B 19 Apr 15:55:24 15:59:27 21° 269° (W) 16:03:23 435.225
KKS-1 19 Apr 15:55:38 16:00:09 77° 104° (ESE) 16:04:38 437.445
GONETS M04 19 Apr 15:55:48 16:00:27 17° 77° (ENE) 16:05:39
RS-15 19 Apr 15:55:56 16:06:39 70° 118° (ESE) 16:17:40 29.354- 29.394
AIST 2 19 Apr 16:04:22 16:06:12 12° 250° (WSW) 16:07:51 435.215
ITAMSAT 1 19 Apr 16:08:28 16:11:04 13° 273° (W) 16:13:23 435.822/435.867
Cosmos 2504 19 Apr 16:41:44 16:48:38 23° 299° (WNW) 16:55:12 435.465 / 435.565
JAS-2 19 Apr 16:56:32 17:04:08 53° 262° (W) 17:11:44 435.910
STARS 19 Apr 17:07:42 17:11:36 30° 292° (WNW) 17:15:28 437.465
MOZHAYETS 4 19 Apr 17:08:47 17:12:53 31° 95° (E) 17:16:59
ISS 19 Apr 17:14:06 17:16:40 21° 349° (NNW) 17:19:14 145.825
HORYU 2 19 Apr 17:17:34 17:19:19 12° 272° (W) 17:20:49 437.375
AO-7 19 Apr 17:26:06 17:33:25 33° 265° (W) 17:40:35 29.400- 29.500
CUSAT 1 19 Apr 17:30:50 17:31:37 11° 82° (E) 17:32:39 437.405
KKS-1 19 Apr 17:34:20 17:36:14 12° 299° (WNW) 17:37:55 437.445
Cosmos 2499 19 Apr 17:41:05 17:44:15 13° 75° (ENE) 17:48:06 435.465 / 435.565
GONETS M04 19 Apr 17:47:19 17:56:03 82° 96° (E) 18:04:55
CUTE-I 19 Apr 18:03:15 18:08:24 53° 71° (ENE) 18:13:36 437.470
RS-15 19 Apr 18:09:39 18:19:54 42° 324° (NW) 18:30:21 29.354- 29.394
Cubesat XI-IV 19 Apr 18:10:37 18:15:53 63° 73° (ENE) 18:21:11 437.490
PCSat 19 Apr 18:10:49 18:15:27 28° 46° (NE) 18:20:08 145.827
CUBESAT XI-V 19 Apr 18:26:38 18:29:29 17° 90° (E) 18:32:31 437.345
PRISM 19 Apr 18:44:38 18:46:44 14° 90° (E) 18:49:01 437.425
MOZHAYETS 4 19 Apr 18:46:06 18:50:02 27° 292° (WNW) 18:53:53
AUBIESAT-1 19 Apr 18:47:18 18:51:04 28° 99° (E) 18:54:38 437.475
ISS 19 Apr 18:51:23 18:53:52 19° 9° (N) 18:56:20 145.825
HO-68 19 Apr 18:55:46 18:59:48 17° 53° (NE) 19:04:08 435.675
STRAND 1 19 Apr 19:01:34 19:05:06 19° 91° (E) 19:08:47 437.568
DANDE 19 Apr 19:05:21 19:08:13 57° 284° (WNW) 19:11:50 436.750
CUSAT 1 19 Apr 19:10:47 19:13:43 34° 289° (WNW) 19:17:24 437.405
GOMX 1 19 Apr 19:22:41 19:23:27 11° 61° (ENE) 19:24:26 467.674
Cosmos 2499 19 Apr 19:27:17 19:36:01 67° 93° (E) 19:44:42 435.465 / 435.565
M-CUBED/EXP-1 PRIME 19 Apr 19:32:41 19:37:13 81° 290° (WNW) 19:41:20 437.505
VERMONT LUNAR 19 Apr 19:44:24 19:46:58 20° 156° (SSE) 19:49:34 437.305
CUTE-I 19 Apr 19:44:52 19:48:52 21° 269° (W) 19:52:43 437.470
GONETS M04 19 Apr 19:47:25 19:54:11 23° 299° (WNW) 20:00:40
Cubesat XI-IV 19 Apr 19:52:55 19:56:31 17° 271° (W) 19:59:54 437.490
PCSat 19 Apr 19:53:54 19:59:09 50° 246° (WSW) 20:04:20 145.827
CUBESAT XI-V 19 Apr 20:02:49 20:07:18 51° 287° (WNW) 20:11:45 437.345
SO-50 19 Apr 20:12:02 20:13:47 12° 28° (NNE) 20:15:41 436.795
COMPASS 1 19 Apr 20:17:42 20:20:55 22° 67° (ENE) 20:24:14 437.405
PRISM 19 Apr 20:18:35 20:22:34 49° 288° (WNW) 20:26:31 437.425
AUBIESAT-1 19 Apr 20:22:00 20:25:50 29° 298° (WNW) 20:29:23 437.475
CINEMA 3 19 Apr 20:27:06 20:29:58 18° 65° (ENE) 20:33:03 145.822/145.860
ISS 19 Apr 20:27:33 20:30:46 52° 29° (NNE) 20:33:57 145.825
RS-15 19 Apr 20:27:48 20:36:22 24° 357° (N) 20:45:09 29.354- 29.394
CANX-2 19 Apr 20:28:19 20:32:23 44° 72° (ENE) 20:36:32 2200.000
DOVE 4 19 Apr 20:28:47 20:32:33 34° 70° (ENE) 20:36:30 437.250
SEEDS 19 Apr 20:31:39 20:35:33 36° 71° (ENE) 20:39:31 437.485
BRITE-PL 19 Apr 20:34:39 20:38:48 84° 257° (WSW) 20:43:00 437.365/2234.400
CUTE 1.7 + AOD 2 19 Apr 20:38:26 20:42:35 52° 73° (ENE) 20:46:48 437.475
HO-68 19 Apr 20:39:20 20:46:30 76° 71° (ENE) 20:53:43 435.675
STRAND 1 19 Apr 20:39:43 20:44:42 53° 288° (WNW) 20:49:37 437.568
PHONESAT 2.4 19 Apr 20:42:58 20:45:47 22° 156° (SSE) 20:48:38 2401.200-2431.200
FUNcube-1 19 Apr 20:46:35 20:47:08 10° 61° (ENE) 20:47:54 145.935
GOMX 1 19 Apr 20:56:53 21:01:01 76° 257° (WSW) 21:05:17 467.674
UKube-1 19 Apr 21:03:15 21:03:52 10° 61° (ENE) 21:04:44 .
AAUSAT CUBESAT 2 19 Apr 21:04:59 21:09:08 60° 74° (ENE) 21:13:20 437.432
ZACube-1 19 Apr 21:06:42 21:09:28 17° 65° (ENE) 21:12:25 437.345
M-CUBED/EXP-1 PRIME 19 Apr 21:10:23 21:11:16 10° 307° (NW) 21:11:56 437.505
CUBEBUG 2 19 Apr 21:11:03 21:14:40 28° 68° (ENE) 21:18:29 437.445
Oscar 11 19 Apr 21:20:40 21:24:46 42° 72° (ENE) 21:28:55 145.826/435.025
VERMONT LUNAR 19 Apr 21:20:51 21:24:08 48° 171° (S) 21:27:25 437.305
Cosmos 2499 19 Apr 21:22:14 21:29:54 30° 294° (WNW) 21:37:16 435.465 / 435.565
DELFI C3 19 Apr 21:24:39 21:28:20 34° 71° (ENE) 21:32:05 145.870
YUBILEINY 19 Apr 21:39:16 21:46:18 27° 64° (ENE) 21:53:34 435.215
DX 1 19 Apr 21:43:10 21:46:51 28° 68° (ENE) 21:50:35 434.975-435.025
SO-50 19 Apr 21:50:46 21:55:35 48° 50° (NE) 22:00:22 436.795
UWE-3 19 Apr 21:50:53 21:55:05 60° 75° (ENE) 21:59:28 435.000/436.395/437.385
COMPASS 1 19 Apr 21:52:32 21:56:26 35° 264° (W) 22:00:20 437.405
HUMSAT D 19 Apr 21:55:46 21:59:17 27° 69° (ENE) 22:02:54 437.325/437.525
CINEMA 3 19 Apr 22:02:50 22:06:53 43° 263° (W) 22:11:05 145.822/145.860
ISS 19 Apr 22:04:23 22:06:55 21° 225° (SW) 22:09:23 145.825
CANX-2 19 Apr 22:05:42 22:08:37 17° 270° (W) 22:11:22 2200.000
DOVE 4 19 Apr 22:07:21 22:10:31 20° 269° (W) 22:13:40 437.250
SEEDS 19 Apr 22:08:16 22:11:31 20° 268° (W) 22:14:41 437.485
CUTE 1.7 + AOD 2 19 Apr 22:16:24 22:18:53 15° 271° (W) 22:21:13 437.475
FUNcube-1 19 Apr 22:18:33 22:22:49 86° 257° (WSW) 22:27:14 145.935
PHONESAT 2.4 19 Apr 22:20:11 22:23:40 50° 172° (S) 22:27:10 2401.200-2431.200
VELOX 1 19 Apr 22:23:17 22:27:13 34° 69° (ENE) 22:31:13 145.980
HO-68 19 Apr 22:29:44 22:35:03 21° 271° (W) 22:40:05 435.675
UKube-1 19 Apr 22:35:06 22:39:25 86° 256° (WSW) 22:43:46 .
ANTELSAT 19 Apr 22:35:30 22:38:26 17° 89° (E) 22:41:32 437.575/2403.000
AISAT 19 Apr 22:38:04 22:42:18 49° 72° (ENE) 22:46:35 437.250
50 SAT 19 Apr 22:39:21 22:43:10 49° 73° (ENE) 22:47:05 437.505
ZACube-1 19 Apr 22:41:22 22:45:30 47° 262° (W) 22:49:45 437.345
RS-15 19 Apr 22:43:10 22:53:17 36° 30° (NNE) 23:03:56 29.354- 29.394
AAUSAT CUBESAT 2 19 Apr 22:43:22 22:45:14 12° 272° (W) 22:46:53 437.432
CUBEBUG 2 19 Apr 22:47:39 22:51:21 27° 266° (W) 22:55:07 437.445
CUBEBUG 1 19 Apr 22:48:38 22:52:22 29° 69° (ENE) 22:56:10 437.445
QB50P2 19 Apr 22:53:40 22:54:46 11° 87° (E) 22:56:07 145.880/145.840
ESTCUBE 1 19 Apr 22:53:40 22:57:50 38° 71° (ENE) 23:02:03 437.505/2401.250
Oscar 11 19 Apr 22:58:07 23:01:12 18° 269° (W) 23:04:09 145.826/435.025
VERMONT LUNAR 19 Apr 22:58:11 23:01:29 49° 188° (S) 23:04:45 437.305
DELFI C3 19 Apr 23:00:32 23:03:37 20° 268° (W) 23:06:37 145.870
SPROUT 19 Apr 23:02:01 23:03:20 11° 62° (ENE) 23:04:52 437.525
NANOSAT C BR1 19 Apr 23:15:00 23:17:59 19° 92° (E) 23:21:07 145.865
POPSAT HIP 1 19 Apr 23:15:04 23:18:05 19° 92° (E) 23:21:14 437.405
DX 1 19 Apr 23:19:20 23:23:05 27° 265° (W) 23:26:46 434.975-435.025
Cosmos 2491 19 Apr 23:22:48 23:31:06 53° 90° (E) 23:39:32 435.465 / 435.565
TIGRISAT 19 Apr 23:27:56 23:32:35 54° 99° (E) 23:37:12 435.000
UNISAT 6 19 Apr 23:29:07 23:33:48 57° 100° (E) 23:38:26 437.425
UWE-3 19 Apr 23:30:09 23:32:10 13° 273° (W) 23:34:00 435.000/436.395/437.385
HUMSAT D 19 Apr 23:31:23 23:35:00 27° 266° (W) 23:38:37 437.325/437.525
SO-50 19 Apr 23:31:53 23:35:54 24° 247° (WSW) 23:39:45 436.795
YUBILEINY 19 Apr 23:35:20 23:44:04 70° 266° (W) 23:52:41 435.215
POLYITAN 1 19 Apr 23:40:58 23:44:57 37° 97° (E) 23:48:58 437.675
O/OREOS (USA 219) 19 Apr 23:43:42 23:48:07 49° 108° (ESE) 23:52:33 437.305
DUCHIFAT 1 19 Apr 23:50:17 23:54:23 44° 99° (E) 23:58:29 145.980
PHONESAT 2.4 19 Apr 23:58:17 00:01:46 51° 188° (S) 00:05:14 2401.200-2431.200
VELOX 1 20 Apr 00:00:18 00:03:53 23° 267° (W) 00:07:23 145.980
QB50P1 20 Apr 00:03:17 00:07:33 64° 101° (E) 00:11:48 145.935-145.965
ANTELSAT 20 Apr 00:10:58 00:15:37 54° 287° (WNW) 00:20:11 437.575/2403.000
BUGSAT 1 20 Apr 00:14:54 00:18:58 59° 101° (E) 00:23:04 437.445
50 SAT 20 Apr 00:16:20 00:18:24 13° 271° (W) 00:20:16 437.505
AISAT 20 Apr 00:16:27 00:19:15 16° 270° (W) 00:21:52 437.250
CUBEBUG 1 20 Apr 00:25:04 00:28:45 26° 266° (W) 00:32:22 437.445
QB50P2 20 Apr 00:26:56 00:31:13 69° 286° (WNW) 00:35:29 145.880/145.840
TISAT 1 20 Apr 00:29:29 00:33:39 79° 76° (ENE) 00:37:52 437.305
ESTCUBE 1 20 Apr 00:31:21 00:34:53 21° 268° (W) 00:38:18 437.505/2401.250
SPROUT 20 Apr 00:34:38 00:38:54 75° 258° (WSW) 00:43:11 437.525
VERMONT LUNAR 20 Apr 00:36:01 00:38:39 21° 204° (SSW) 00:41:15 437.305
Cosmos 2504 20 Apr 00:37:59 00:45:13 33° 67° (ENE) 00:52:08 435.465 / 435.565
ITUPSAT 1 20 Apr 00:39:51 00:43:07 19° 64° (ENE) 00:46:32 437.325
NANOSAT C BR1 20 Apr 00:50:02 00:54:02 39° 289° (WNW) 00:58:01 145.865
POPSAT HIP 1 20 Apr 00:50:09 00:54:10 39° 289° (WNW) 00:58:10 437.405
RS-15 20 Apr 00:55:48 01:07:24 90° 228° (SW) 01:19:30 29.354- 29.394
TIGRISAT 20 Apr 01:05:42 01:08:57 18° 296° (WNW) 01:12:03 435.000
UNISAT 6 20 Apr 01:07:01 01:10:10 17° 296° (WNW) 01:13:09 437.425
BEESAT 20 Apr 01:13:38 01:18:03 39° 70° (ENE) 01:22:31 436.000
SWISSCUBE 20 Apr 01:14:54 01:19:25 43° 70° (ENE) 01:23:58 437.505
POLYITAN 1 20 Apr 01:17:22 01:20:41 21° 293° (WNW) 01:23:55 437.675
Cosmos 2491 20 Apr 01:20:25 01:28:21 36° 292° (WNW) 01:36:12 435.465 / 435.565
O/OREOS (USA 219) 20 Apr 01:24:25 01:27:51 20° 307° (NW) 01:31:12 437.305
DUCHIFAT 1 20 Apr 01:26:58 01:29:55 18° 295° (WNW) 01:32:45 145.980
YUBILEINY 20 Apr 01:35:34 01:39:25 13° 285° (WNW) 01:42:37 435.215
PHONESAT 2.4 20 Apr 01:36:49 01:39:39 22° 204° (SSW) 01:42:26 2401.200-2431.200
QB50P1 20 Apr 01:40:51 01:42:58 13° 297° (WNW) 01:44:54 145.935-145.965
AIST 1 20 Apr 01:46:58 01:51:16 70° 97° (E) 01:55:35
BUGSAT 1 20 Apr 01:52:01 01:54:03 13° 296° (WNW) 01:55:55 437.445
ITUPSAT 1 20 Apr 02:15:58 02:20:40 53° 260° (W) 02:25:23 437.325
Oscar 19 20 Apr 02:17:30 02:22:34 52° 99° (E) 02:27:39 437.125/150
STARS 20 Apr 02:29:27 02:33:06 27° 68° (ENE) 02:36:52 437.465
Gurwin Techsat 1B 20 Apr 02:30:09 02:33:45 19° 90° (E) 02:37:32 435.225
Cosmos 2504 20 Apr 02:31:06 02:39:06 53° 269° (W) 02:46:26 435.465 / 435.565
ITAMSAT 1 20 Apr 02:38:10 02:42:22 25° 93° (E) 02:46:39 435.822/435.867
BEESAT 20 Apr 02:52:10 02:56:03 24° 267° (W) 02:59:51 436.000
SWISSCUBE 20 Apr 02:53:48 02:57:30 21° 268° (W) 03:01:05 437.505
KKS-1 20 Apr 02:54:35 02:59:00 78° 75° (ENE) 03:03:27 437.445
RS-15 20 Apr 03:09:45 03:18:39 25° 257° (WSW) 03:27:14 29.354- 29.394
AIST 1 20 Apr 03:28:08 03:29:33 11° 295° (WNW) 03:30:42
HORYU 2 20 Apr 03:29:58 03:31:49 13° 88° (E) 03:33:55 437.375
AO-7 20 Apr 03:34:29 03:38:59 16° 86° (E) 03:44:00 29.400- 29.500
GONETS M04 20 Apr 03:56:37 04:04:56 44° 71° (ENE) 04:13:18
Oscar 19 20 Apr 03:57:38 04:01:37 22° 296° (WNW) 04:05:27 437.125/150
DANDE 20 Apr 03:59:07 04:03:48 20° 66° (ENE) 04:09:26 436.750
CUSAT 1 20 Apr 04:01:32 04:07:08 27° 68° (ENE) 04:13:44 437.405
BEESAT 2 20 Apr 04:02:51 04:05:51 20° 113° (ESE) 04:08:58 435.950
STARS 20 Apr 04:05:41 04:09:32 29° 265° (W) 04:13:21 437.465
JAS-2 20 Apr 04:07:10 04:12:22 24° 88° (E) 04:17:15 435.910
Gurwin Techsat 1B 20 Apr 04:08:58 04:14:11 58° 288° (WNW) 04:19:23 435.225
BEESAT 3 20 Apr 04:09:15 04:12:44 28° 115° (ESE) 04:16:18 437.485
MOZHAYETS 4 20 Apr 04:11:36 04:15:45 34° 70° (ENE) 04:19:57
ITAMSAT 1 20 Apr 04:17:11 04:22:03 42° 291° (WNW) 04:26:53 435.822/435.867
AIST 2 20 Apr 04:25:30 04:26:53 12° 109° (ESE) 04:28:30 435.215
KKS-1 20 Apr 04:35:55 04:36:19 10° 273° (W) 04:36:24 437.445
M-CUBED/EXP-1 PRIME 20 Apr 04:47:57 04:51:21 20° 59° (ENE) 04:54:55 437.505
HORYU 2 20 Apr 05:04:31 05:09:01 66° 286° (WNW) 05:13:28 437.375
Cosmos 2499 20 Apr 05:19:08 05:25:17 24° 62° (ENE) 05:31:19 435.465 / 435.565
AO-7 20 Apr 05:24:52 05:33:14 81° 107° (ESE) 05:41:36 29.400- 29.500
CUBESAT XI-V 20 Apr 05:31:09 05:34:23 19° 65° (ENE) 05:37:44 437.345
AUBIESAT-1 20 Apr 05:34:59 05:39:30 47° 66° (ENE) 05:44:08 437.475
PRISM 20 Apr 05:36:26 05:38:25 14° 63° (ENE) 05:40:35 437.425
BEESAT 2 20 Apr 05:39:48 05:43:44 42° 310° (NW) 05:47:43 435.950
DANDE 20 Apr 05:40:55 05:47:38 86° 261° (W) 05:55:54 436.750
CUSAT 1 20 Apr 05:43:24 05:50:18 69° 263° (W) 05:58:25 437.405
BEESAT 3 20 Apr 05:47:00 05:50:42 31° 313° (NW) 05:54:25 437.485
MOZHAYETS 4 20 Apr 05:49:07 05:53:02 26° 266° (W) 05:56:54
JAS-2 20 Apr 05:51:23 05:58:04 56° 290° (WNW) 06:03:54 435.910
GONETS M04 20 Apr 05:53:36 06:01:51 44° 272° (W) 06:09:57
AIST 2 20 Apr 06:00:41 06:04:56 75° 304° (WNW) 06:09:15 435.215
STRAND 1 20 Apr 06:18:08 06:22:34 31° 67° (ENE) 06:27:04 437.568
CUTE-I 20 Apr 06:20:16 06:23:57 19° 90° (E) 06:27:48 437.470
